sat.trackr.live / text

‹ back to catalog

STARLINK-36241

NORAD 68154 · 2026-049N

PAYLOAD ACTIVE UNKNOWN

§ Identity

Operator
Country
US
Launch date
2026-03-13
Launch site
AFWTR
Launch vehicle
Mass (kg)
RCS (m²)

Purposes: comms

External: N2YO · Heavens-Above · Gunter

§ Orbital elements

Epoch: 2026-05-25T00:58:27.876288Z

Period
93.91 min
Inclination
97.2833°
Eccentricity
0.0000152
Mean motion
15.33455834 rev/d
Perigee alt
465.4 km
Apogee alt
465.6 km
Semi-major
6,843.6 km
B*
8.0604e-5
RAAN
166.6239°
Arg perigee
184.7517°
Mean anomaly
175.3724°
Rev number
1,134

§ Raw data

STARLINK-362411 68154U 26049N   26145.04060042  .00002529  00000+0  80604-4 0  99982 68154  97.2833 166.6239 0000152 184.7517 175.3724 15.33455834 11341

JSON: /api/v1/satellites/68154 · /tle

For live sub-satellite position, see the globe view (requires WebGL).

§ Visibility from observer

Set your observer location to see the next 7 days of passes ≥ 10°. The values pass through the URL so the page stays shareable.

No JS? Fill the form by hand. The geolocation button needs JavaScript.